�������l�o���
Date,Time,MP-1(��Sv/h),MP-2(��Sv/h),MP-3(��Sv/h),MP-4(��Sv/h),MP-5(��Sv/h),MP-6(��Sv/h),MP-7(��Sv/h),MP-8(��Sv/h),����,����(m/s),���J
2022/05/29,00:00,0.577,0.840,0.540,1.017,0.711,0.344,0.595,0.558,��,4.2,��
2022/05/29,00:10,0.577,0.838,0.541,1.015,0.710,0.345,0.594,0.559,���쐼,4.9,��
2022/05/29,00:20,0.579,0.838,0.541,1.015,0.711,0.345,0.594,0.559,���쐼,4.3,��
2022/05/29,00:30,0.577,0.838,0.541,1.016,0.712,0.345,0.594,0.561,�쐼,3.9,��
2022/05/29,00:40,0.577,0.840,0.543,1.017,0.712,0.344,0.594,0.560,���쐼,4.9,��
2022/05/29,00:50,0.578,0.838,0.542,1.016,0.712,0.346,0.592,0.559,���쐼,5.4,��
2022/05/29,01:00,0.577,0.840,0.541,1.015,0.712,0.346,0.594,0.560,���쐼,5.4,��
2022/05/29,01:10,0.577,0.840,0.541,1.016,0.710,0.345,0.595,0.560,��,3.5,��
2022/05/29,01:20,0.579,0.836,0.541,1.018,0.712,0.347,0.592,0.559,��,3.1,��
2022/05/29,01:30,0.577,0.838,0.542,1.016,0.713,0.347,0.595,0.560,��,1.5,��
2022/05/29,01:40,0.578,0.840,0.544,1.018,0.714,0.345,0.594,0.558,���쐼,1.7,��
2022/05/29,01:50,0.576,0.839,0.543,1.018,0.713,0.347,0.594,0.559,��,3.6,��
2022/05/29,02:00,0.576,0.837,0.541,1.020,0.712,0.345,0.594,0.561,��,4.4,��
2022/05/29,02:10,0.577,0.836,0.542,1.017,0.712,0.347,0.594,0.560,��,3.2,��
2022/05/29,02:20,0.577,0.840,0.541,1.016,0.711,0.347,0.595,0.560,��,3.5,��
2022/05/29,02:30,0.576,0.839,0.541,1.017,0.711,0.346,0.594,0.559,��,2.5,��
2022/05/29,02:40,0.577,0.837,0.544,1.018,0.710,0.345,0.594,0.559,���쐼,4.3,��
2022/05/29,02:50,0.578,0.839,0.542,1.017,0.712,0.346,0.595,0.559,���쐼,4.5,��
2022/05/29,03:00,0.577,0.838,0.543,1.018,0.713,0.347,0.594,0.558,��,2.9,��
2022/05/29,03:10,0.577,0.838,0.543,1.015,0.711,0.347,0.595,0.559,���쐼,3.3,��
2022/05/29,03:20,0.578,0.838,0.542,1.018,0.712,0.345,0.594,0.559,��,5.8,��
2022/05/29,03:30,0.578,0.837,0.542,1.015,0.713,0.346,0.596,0.558,��,2.6,��
2022/05/29,03:40,0.577,0.838,0.543,1.019,0.712,0.347,0.595,0.560,��,2.3,��
2022/05/29,03:50,0.575,0.838,0.541,1.017,0.712,0.345,0.596,0.560,���쐼,2.0,��
2022/05/29,04:00,0.577,0.838,0.542,1.017,0.710,0.346,0.593,0.560,�쓌,2.8,��
2022/05/29,04:10,0.578,0.839,0.542,1.017,0.712,0.346,0.595,0.558,��쓌,2.0,��
2022/05/29,04:20,0.577,0.838,0.541,1.016,0.711,0.345,0.593,0.559,��쓌,2.6,��
2022/05/29,04:30,0.576,0.837,0.541,1.018,0.712,0.346,0.594,0.560,��쓌,2.3,��
2022/05/29,04:40,0.576,0.838,0.541,1.018,0.712,0.346,0.595,0.559,�쓌,3.5,��
2022/05/29,04:50,0.578,0.840,0.542,1.017,0.711,0.346,0.595,0.560,��쓌,3.1,��
2022/05/29,05:00,0.577,0.838,0.542,1.018,0.712,0.347,0.595,0.560,��쓌,3.3,��
2022/05/29,05:10,0.578,0.836,0.542,1.017,0.711,0.346,0.596,0.559,��쓌,4.0,��
2022/05/29,05:20,0.578,0.838,0.542,1.017,0.713,0.346,0.595,0.560,��,4.2,��
2022/05/29,05:30,0.578,0.838,0.543,1.017,0.713,0.346,0.595,0.559,��,4.0,��
2022/05/29,05:40,0.579,0.838,0.543,1.017,0.714,0.345,0.595,0.560,��,3.7,��
2022/05/29,05:50,0.577,0.840,0.543,1.018,0.713,0.345,0.595,0.561,��쐼,2.6,��
2022/05/29,06:00,0.578,0.838,0.542,1.019,0.712,0.344,0.595,0.560,��쐼,4.1,��
2022/05/29,06:10,0.578,0.837,0.542,1.018,0.713,0.345,0.595,0.560,�쐼,3.5,��
2022/05/29,06:20,0.578,0.838,0.542,1.017,0.714,0.346,0.595,0.560,�쐼,3.1,��
2022/05/29,06:30,0.579,0.837,0.542,1.018,0.711,0.347,0.595,0.560,���쐼,3.5,��
2022/05/29,06:40,0.578,0.835,0.542,1.020,0.711,0.344,0.596,0.561,��,3.1,��
2022/05/29,06:50,0.577,0.836,0.542,1.019,0.712,0.344,0.595,0.560,��,3.4,��
2022/05/29,07:00,0.577,0.837,0.541,1.017,0.712,0.345,0.595,0.561,��,3.2,��
2022/05/29,07:10,0.576,0.836,0.542,1.018,0.711,0.344,0.595,0.559,��,2.5,��
2022/05/29,07:20,0.575,0.837,0.542,1.019,0.712,0.345,0.595,0.560,���쐼,1.1,��
2022/05/29,07:30,0.578,0.837,0.541,1.018,0.712,0.346,0.594,0.563,-,CALM,��
2022/05/29,07:40,0.577,0.837,0.544,1.021,0.712,0.345,0.595,0.560,-,CALM,��
2022/05/29,07:50,0.578,0.838,0.544,1.020,0.715,0.344,0.596,0.558,��쓌,0.6,��
2022/05/29,08:00,0.578,0.839,0.543,1.018,0.714,0.345,0.595,0.558,���쐼,1.2,��
2022/05/29,08:10,0.578,0.839,0.544,1.018,0.716,0.344,0.593,0.558,��쓌,1.9,��
2022/05/29,08:20,0.578,0.837,0.542,1.017,0.714,0.345,0.595,0.559,�쐼,1.9,��
2022/05/29,08:30,0.578,0.840,0.543,1.020,0.713,0.344,0.594,0.560,�쐼,4.1,��
2022/05/29,08:40,0.579,0.838,0.542,1.020,0.715,0.345,0.594,0.559,��,3.9,��
2022/05/29,08:50,0.578,0.837,0.542,1.019,0.715,0.345,0.594,0.559,���쐼,3.8,��
2022/05/29,09:00,0.578,0.842,0.544,1.017,0.714,0.344,0.594,0.557,���쐼,5.3,��
2022/05/29,09:10,0.578,0.840,0.544,1.019,0.715,0.346,0.594,0.558,���쐼,4.1,��
2022/05/29,09:20,0.578,0.838,0.544,1.020,0.715,0.347,0.595,0.559,���쐼,4.3,��
2022/05/29,09:30,0.578,0.839,0.544,1.019,0.714,0.346,0.595,0.557,���쐼,5.5,��
2022/05/29,09:40,0.580,0.840,0.542,1.021,0.715,0.346,0.595,0.559,���쐼,5.1,��
2022/05/29,09:50,0.581,0.842,0.546,1.019,0.715,0.345,0.597,0.558,���쐼,5.5,��
2022/05/29,10:00,0.580,0.843,0.545,1.022,0.716,0.347,0.596,0.558,��,4.9,��
2022/05/29,10:10,0.582,0.843,0.542,1.021,0.716,0.346,0.597,0.558,���k��,3.2,��
2022/05/29,10:20,0.580,0.842,0.544,1.021,0.714,0.347,0.595,0.559,���k��,4.2,��
2022/05/29,10:30,0.581,0.842,0.545,1.020,0.715,0.347,0.596,0.560,��,6.9,��
2022/05/29,10:40,0.580,0.842,0.543,1.020,0.718,0.344,0.595,0.560,���k��,6.3,��
2022/05/29,10:50,0.581,0.844,0.543,1.019,0.715,0.347,0.595,0.558,��,4.9,��
2022/05/29,11:00,0.583,0.841,0.545,1.020,0.715,0.347,0.595,0.560,���쐼,5.5,��
2022/05/29,11:10,0.584,0.843,0.545,1.021,0.715,0.348,0.594,0.559,��,6.2,��
2022/05/29,11:20,0.585,0.843,0.546,1.020,0.717,0.347,0.595,0.561,���쐼,6.0,��
2022/05/29,11:30,0.583,0.841,0.545,1.021,0.717,0.347,0.595,0.560,��,6.7,��
2022/05/29,11:40,0.584,0.844,0.545,1.023,0.718,0.347,0.595,0.560,���쐼,6.3,��
2022/05/29,11:50,0.584,0.845,0.546,1.022,0.718,0.348,0.597,0.561,���쐼,6.2,��
2022/05/29,12:00,0.584,0.844,0.547,1.023,0.718,0.347,0.596,0.561,���쐼,5.6,��
2022/05/29,12:10,0.584,0.844,0.546,1.022,0.718,0.347,0.596,0.560,��,6.8,��
2022/05/29,12:20,0.585,0.843,0.547,1.022,0.718,0.349,0.596,0.562,��,5.8,��
2022/05/29,12:30,0.586,0.843,0.548,1.022,0.719,0.348,0.596,0.561,��,4.4,��
2022/05/29,12:40,0.587,0.847,0.546,1.023,0.719,0.348,0.598,0.560,��,6.2,��
2022/05/29,12:50,0.584,0.845,0.549,1.023,0.721,0.348,0.596,0.562,��,6.4,��
2022/05/29,13:00,0.587,0.845,0.548,1.027,0.722,0.348,0.596,0.563,��,5.2,��
2022/05/29,13:10,0.585,0.845,0.548,1.026,0.721,0.349,0.598,0.561,��,6.2,��
2022/05/29,13:20,0.585,0.848,0.547,1.025,0.720,0.348,0.595,0.562,���쐼,5.2,��
2022/05/29,13:30,0.586,0.848,0.546,1.025,0.722,0.349,0.597,0.562,��,4.8,��
2022/05/29,13:40,0.587,0.849,0.549,1.026,0.723,0.349,0.597,0.562,��,5.4,��
2022/05/29,13:50,0.587,0.850,0.548,1.026,0.723,0.348,0.596,0.562,��,5.9,��
2022/05/29,14:00,0.589,0.851,0.548,1.025,0.722,0.348,0.597,0.563,��,7.1,��
2022/05/29,14:10,0.587,0.850,0.548,1.025,0.724,0.348,0.597,0.562,��,7.6,��
2022/05/29,14:20,0.586,0.852,0.548,1.027,0.722,0.349,0.597,0.563,��,7.2,��
2022/05/29,14:30,0.588,0.852,0.549,1.027,0.723,0.348,0.597,0.563,��,6.8,��
2022/05/29,14:40,0.588,0.848,0.548,1.027,0.723,0.348,0.597,0.563,��,6.3,��
2022/05/29,14:50,0.587,0.851,0.548,1.029,0.722,0.349,0.597,0.564,���k��,5.1,��
2022/05/29,15:00,0.586,0.853,0.550,1.026,0.725,0.350,0.598,0.564,�k��,2.0,��
2022/05/29,15:10,0.586,0.854,0.548,1.030,0.724,0.350,0.597,0.562,���k��,3.2,��
2022/05/29,15:20,0.586,0.850,0.550,1.028,0.724,0.350,0.597,0.564,���k��,3.2,��
2022/05/29,15:30,0.586,0.851,0.547,1.027,0.725,0.350,0.597,0.564,���k��,2.0,��
2022/05/29,15:40,0.586,0.852,0.548,1.028,0.724,0.350,0.595,0.565,�k�k��,2.6,��
2022/05/29,15:50,0.585,0.849,0.547,1.029,0.726,0.348,0.597,0.564,�k��,2.5,��
2022/05/29,16:00,0.586,0.849,0.550,1.029,0.724,0.347,0.595,0.563,�k��,3.0,��
2022/05/29,16:10,0.587,0.850,0.548,1.029,0.725,0.347,0.597,0.561,���k��,3.5,��
2022/05/29,16:20,0.585,0.849,0.548,1.029,0.723,0.347,0.596,0.560,��,4.9,��
2022/05/29,16:30,0.586,0.850,0.546,1.028,0.724,0.348,0.598,0.562,���쓌,4.6,��
2022/05/29,16:40,0.586,0.852,0.548,1.029,0.724,0.347,0.596,0.561,��,4.2,��
2022/05/29,16:50,0.585,0.851,0.547,1.029,0.724,0.348,0.596,0.561,��,3.9,��
2022/05/29,17:00,0.588,0.851,0.548,1.029,0.724,0.349,0.596,0.561,���k��,2.6,��
2022/05/29,17:10,0.588,0.852,0.549,1.031,0.724,0.348,0.595,0.562,���k��,1.2,��
2022/05/29,17:20,0.586,0.849,0.548,1.030,0.724,0.349,0.596,0.561,���k��,2.5,��
2022/05/29,17:30,0.586,0.849,0.547,1.029,0.723,0.347,0.596,0.562,���쓌,3.1,��
2022/05/29,17:40,0.587,0.850,0.547,1.029,0.723,0.347,0.596,0.562,��,3.4,��
2022/05/29,17:50,0.585,0.849,0.548,1.030,0.722,0.347,0.596,0.561,���쓌,3.4,��
2022/05/29,18:00,0.585,0.848,0.546,1.030,0.723,0.348,0.594,0.562,���쓌,2.9,��
2022/05/29,18:10,0.587,0.847,0.548,1.031,0.725,0.347,0.597,0.561,��,2.6,��
2022/05/29,18:20,0.582,0.848,0.549,1.031,0.723,0.348,0.594,0.563,��,1.1,��
2022/05/29,18:30,0.584,0.849,0.547,1.031,0.723,0.348,0.595,0.562,��,2.2,��
2022/05/29,18:40,0.584,0.849,0.547,1.032,0.723,0.347,0.596,0.563,��,2.0,��
2022/05/29,18:50,0.585,0.850,0.547,1.032,0.724,0.346,0.594,0.561,���쓌,2.0,��
2022/05/29,19:00,0.586,0.850,0.548,1.031,0.724,0.347,0.594,0.562,���쓌,1.2,��
2022/05/29,19:10,0.586,0.851,0.546,1.031,0.726,0.349,0.596,0.562,��,0.8,��
2022/05/29,19:20,0.586,0.851,0.546,1.030,0.725,0.348,0.595,0.563,�쓌,1.5,��
2022/05/29,19:30,0.586,0.852,0.546,1.030,0.727,0.348,0.597,0.564,�쓌,1.9,��
2022/05/29,19:40,0.586,0.850,0.548,1.030,0.726,0.349,0.596,0.564,��쓌,1.5,��
2022/05/29,19:50,0.585,0.852,0.550,1.029,0.728,0.348,0.596,0.562,-,CALM,��
2022/05/29,20:00,0.587,0.851,0.548,1.032,0.726,0.349,0.596,0.562,-,CALM,��
2022/05/29,20:10,0.587,0.850,0.549,1.031,0.728,0.348,0.595,0.562,�k�k��,0.9,��
2022/05/29,20:20,0.587,0.853,0.550,1.031,0.727,0.349,0.597,0.563,���쓌,1.7,��
2022/05/29,20:30,0.585,0.852,0.550,1.033,0.725,0.349,0.598,0.563,�쓌,1.5,��
2022/05/29,20:40,0.586,0.852,0.549,1.033,0.727,0.349,0.598,0.562,�k��,1.2,��
2022/05/29,20:50,0.587,0.853,0.548,1.031,0.726,0.348,0.599,0.563,�k,2.0,��
2022/05/29,21:00,0.586,0.853,0.548,1.033,0.725,0.348,0.597,0.563,�k,3.5,��
2022/05/29,21:10,0.587,0.852,0.548,1.031,0.727,0.349,0.597,0.564,�k,2.6,��
2022/05/29,21:20,0.585,0.851,0.547,1.033,0.728,0.348,0.597,0.563,�k�k��,2.6,��
2022/05/29,21:30,0.585,0.851,0.548,1.031,0.726,0.349,0.598,0.563,�k�k��,2.5,��
2022/05/29,21:40,0.587,0.852,0.548,1.033,0.724,0.349,0.596,0.563,�k,2.0,��
2022/05/29,21:50,0.586,0.852,0.549,1.032,0.726,0.349,0.598,0.562,�k,3.1,��
2022/05/29,22:00,0.588,0.851,0.548,1.034,0.726,0.347,0.598,0.564,�k�k��,3.7,��
2022/05/29,22:10,0.585,0.852,0.547,1.036,0.727,0.348,0.598,0.562,�k,3.9,��
2022/05/29,22:20,0.585,0.850,0.549,1.033,0.724,0.348,0.598,0.564,�k,3.4,��
2022/05/29,22:30,0.587,0.852,0.548,1.034,0.724,0.349,0.598,0.564,�k�k��,3.3,��
2022/05/29,22:40,0.585,0.851,0.547,1.034,0.727,0.350,0.598,0.563,�k,0.8,��
2022/05/29,22:50,0.585,0.850,0.549,1.037,0.725,0.349,0.598,0.563,-,CALM,��
2022/05/29,23:00,0.584,0.850,0.549,1.032,0.727,0.350,0.598,0.563,�k�k��,2.8,��
2022/05/29,23:10,0.584,0.853,0.548,1.032,0.726,0.350,0.599,0.562,�k�k��,3.7,��
2022/05/29,23:20,0.586,0.851,0.548,1.033,0.728,0.349,0.598,0.563,�k�k��,3.5,��
2022/05/29,23:30,0.584,0.852,0.548,1.031,0.727,0.348,0.599,0.563,�k��,3.9,��
2022/05/29,23:40,0.585,0.850,0.548,1.033,0.726,0.349,0.599,0.563,�k��,3.4,��
2022/05/29,23:50,0.584,0.851,0.549,1.033,0.726,0.348,0.600,0.564,�k�k��,4.2,��
